TimeEST,TemperatureF,Dew PointF,Humidity,Sea Level PressureIn,VisibilityMPH,Wind Direction,Wind SpeedMPH,Gust SpeedMPH,PrecipitationIn,Events,Conditions,WindDirDegrees,DateUTC
12:08 AM,30.2,30.2,100,29.95,5.0,Calm,Calm,-,N/A,,Mostly Cloudy,0,2013-02-06 05:08:00
12:15 AM,28.4,28.4,100,29.95,4.0,Calm,Calm,-,N/A,,Scattered Clouds,0,2013-02-06 05:15:00
12:24 AM,28.4,28.4,100,29.95,2.5,Calm,Calm,-,N/A,,Scattered Clouds,0,2013-02-06 05:24:00
12:52 AM,26.6,26.6,100,29.95,3.0,Calm,Calm,-,N/A,,Partly Cloudy,0,2013-02-06 05:52:00
12:55 AM,26.2,26.2,100,29.95,3.0,Calm,Calm,-,0.00,,Partly Cloudy,0,2013-02-06 05:55:00
1:17 AM,24.8,24.8,100,29.95,2.5,Calm,Calm,-,N/A,,Clear,0,2013-02-06 06:17:00
1:50 AM,23.0,23.0,100,29.95,1.8,Calm,Calm,-,N/A,,Clear,0,2013-02-06 06:50:00
1:52 AM,23.0,23.0,100,29.95,1.5,Calm,Calm,-,N/A,,Clear,0,2013-02-06 06:52:00
1:55 AM,22.6,22.6,100,29.95,1.5,Calm,Calm,-,N/A,,Clear,0,2013-02-06 06:55:00
2:03 AM,23.0,23.0,100,29.95,1.8,Calm,Calm,-,N/A,,Clear,0,2013-02-06 07:03:00
2:05 AM,23.0,23.0,100,29.96,1.5,Calm,Calm,-,N/A,,Clear,0,2013-02-06 07:05:00
2:10 AM,23.0,23.0,100,29.95,1.8,Calm,Calm,-,N/A,,Clear,0,2013-02-06 07:10:00
2:14 AM,23.0,23.0,100,29.95,2.0,Calm,Calm,-,N/A,,Clear,0,2013-02-06 07:14:00
2:55 AM,21.4,21.2,99,29.96,2.0,Calm,Calm,-,N/A,,Clear,0,2013-02-06 07:55:00
3:04 AM,23.0,23.0,100,29.96,3.0,Calm,Calm,-,N/A,,Partly Cloudy,0,2013-02-06 08:04:00
3:55 AM,23.0,23.0,100,29.98,5.0,Calm,Calm,-,N/A,,Mostly Cloudy,0,2013-02-06 08:55:00
4:23 AM,24.8,24.8,100,29.99,2.5,SW,5.8,-,N/A,,Overcast,230,2013-02-06 09:23:00
4:29 AM,24.8,24.8,100,29.99,1.8,SW,6.9,-,N/A,,Overcast,230,2013-02-06 09:29:00
4:37 AM,26.6,26.6,100,30.00,2.0,WSW,5.8,-,N/A,,Overcast,240,2013-02-06 09:37:00
4:45 AM,26.6,26.6,100,30.00,3.0,WSW,4.6,-,N/A,,Overcast,250,2013-02-06 09:45:00
4:55 AM,26.2,26.2,100,30.01,5.0,West,5.8,-,N/A,,Overcast,260,2013-02-06 09:55:00
5:55 AM,27.1,27.1,100,30.03,4.0,SSW,3.5,-,N/A,,Overcast,210,2013-02-06 10:55:00
6:51 AM,30.2,28.4,93,30.08,9.0,West,5.8,-,N/A,,Overcast,280,2013-02-06 11:51:00
6:55 AM,30.7,28.0,90,30.08,10.0,West,6.9,-,N/A,,Overcast,270,2013-02-06 11:55:00
7:17 AM,32.0,26.6,80,30.08,10.0,West,6.9,-,N/A,,Overcast,280,2013-02-06 12:17:00
7:55 AM,31.6,26.8,82,30.10,10.0,West,5.8,-,N/A,,Overcast,260,2013-02-06 12:55:00
8:55 AM,32.4,25.2,75,30.13,10.0,West,9.2,-,N/A,,Overcast,260,2013-02-06 13:55:00
9:18 AM,32.0,24.8,75,30.14,10.0,West,10.4,-,N/A,,Overcast,280,2013-02-06 14:18:00
9:55 AM,32.9,26.2,76,30.15,10.0,West,11.5,-,0.00,,Mostly Cloudy,280,2013-02-06 14:55:00
9:56 AM,33.8,26.6,75,30.15,10.0,West,12.7,-,N/A,,Mostly Cloudy,280,2013-02-06 14:56:00
10:42 AM,33.8,24.8,70,30.17,10.0,WSW,12.7,21.9,N/A,,Mostly Cloudy,250,2013-02-06 15:42:00
10:52 AM,35.6,24.8,65,30.17,10.0,WNW,12.7,20.7,N/A,,Overcast,290,2013-02-06 15:52:00
10:55 AM,34.5,25.2,69,30.18,10.0,West,10.4,20.7,0.00,,Overcast,270,2013-02-06 15:55:00
10:59 AM,33.8,24.8,70,30.18,10.0,West,12.7,20.7,N/A,Rain,Light Rain,280,2013-02-06 15:59:00
11:33 AM,35.6,24.8,65,30.18,10.0,West,11.5,17.3,N/A,,Scattered Clouds,280,2013-02-06 16:33:00
11:55 AM,35.6,24.6,64,30.18,10.0,West,11.5,17.3,0.00,,Mostly Cloudy,270,2013-02-06 16:55:00
12:12 PM,35.6,24.8,65,30.17,10.0,West,10.4,-,N/A,,Overcast,270,2013-02-06 17:12:00
12:42 PM,35.6,23.0,60,30.18,10.0,WNW,10.4,-,N/A,,Mostly Cloudy,290,2013-02-06 17:42:00
12:55 PM,35.2,23.7,63,30.18,10.0,West,13.8,-,0.00,,Mostly Cloudy,270,2013-02-06 17:55:00
1:28 PM,35.6,23.0,60,30.19,10.0,WNW,12.7,21.9,N/A,Rain,Light Rain,290,2013-02-06 18:28:00
1:55 PM,35.4,23.5,62,30.19,10.0,West,11.5,17.3,0.00,,Mostly Cloudy,270,2013-02-06 18:55:00
2:53 PM,37.4,21.2,52,30.20,10.0,WNW,9.2,-,N/A,,Mostly Cloudy,290,2013-02-06 19:53:00
2:55 PM,36.9,22.1,55,30.21,10.0,West,6.9,-,0.00,,Overcast,280,2013-02-06 19:55:00
3:10 PM,35.6,23.0,60,30.21,10.0,West,10.4,17.3,N/A,,Overcast,270,2013-02-06 20:10:00
3:19 PM,35.6,21.2,56,30.21,10.0,Variable,4.6,-,N/A,,Mostly Cloudy,0,2013-02-06 20:19:00
3:55 PM,37.8,19.0,47,30.22,10.0,WNW,10.4,-,0.00,,Mostly Cloudy,290,2013-02-06 20:55:00
4:02 PM,37.4,17.6,45,30.23,10.0,West,13.8,21.9,N/A,,Overcast,270,2013-02-06 21:02:00
4:13 PM,37.4,17.6,45,30.24,10.0,WNW,8.1,-,N/A,,Overcast,290,2013-02-06 21:13:00
4:55 PM,36.3,18.0,47,30.25,10.0,West,13.8,-,0.00,,Mostly Cloudy,280,2013-02-06 21:55:00
5:55 PM,34.3,16.5,48,30.28,10.0,West,5.8,-,N/A,,Clear,260,2013-02-06 22:55:00
6:55 PM,33.3,16.0,49,30.30,10.0,West,6.9,-,N/A,,Clear,270,2013-02-06 23:55:00
7:55 PM,32.7,15.6,49,30.32,10.0,WNW,8.1,-,N/A,,Clear,290,2013-02-07 00:55:00
8:55 PM,32.5,14.2,47,30.33,10.0,WSW,6.9,-,N/A,,Clear,250,2013-02-07 01:55:00
9:55 PM,31.5,13.5,47,30.35,10.0,West,6.9,-,N/A,,Clear,270,2013-02-07 02:55:00
10:55 PM,30.9,13.3,48,30.35,10.0,NNW,4.6,-,N/A,,Clear,330,2013-02-07 03:55:00
11:55 PM,27.3,14.9,60,30.36,10.0,Calm,Calm,-,N/A,,Clear,0,2013-02-07 04:55:00